Plymouth, MA

12:14 AM EDT on August 17, 2017 (GMT -0400)
Plymouth Municipal

Weather History for KPYM - August, 2012

Change the Weather History Date:

Monday, August 20, 2012

  Actual Average Record
Temperature  
Mean Temperature 67 °F -  
Max Temperature 77 °F 77 °F 93 °F (1955)
Min Temperature 59 °F 56 °F 41 °F (1981)
Cooling Degree Days 2    
Growing Degree Days 17 (Base 50)    
Moisture  
Dew Point 59 °F    
Average Humidity 75    
Maximum Humidity 93    
Minimum Humidity 48    
Precipitation  
Precipitation 0.01 in - - ()
Sea Level Pressure  
Sea Level Pressure 29.91 in    
Wind  
Wind Speed 1 mph (SSE)    
Max Wind Speed 6 mph    
Max Gust Speed -    
Visibility 10 miles    
Events      
Averages and records for this station are not official NWS values.
T = Trace of Precipitation, MM = Missing Value Source: NWS Daily Summary

Daily Weather History Graph

Daily Weather History Graph

Search for Another Location

Airport or City:

Trip Planner

Search our weather history database for the weather conditions in past years. The results will help you decide how hot, cold, wet, or windy it might be!

Date:

Astronomy

Aug. 20, 2012 Rise Set
Actual Time 5:56 AM EDT 7:34 PM EDT
Civil Twilight 5:27 AM EDT 8:04 PM EDT
Nautical Twilight 4:51 AM EDT 8:40 PM EDT
Astronomical Twilight 4:12 AM EDT 9:18 PM EDT
Moon 9:19 AM EDT (8/20) 8:51 PM EDT (8/20)
Length of Visible Light 14h 37m
Length of Day
13h 38m
Waxing Crescent, 11% of the Moon is Illuminated
Aug 20
Waxing Crescent
Aug 24
First Quarter
Aug 31
Full
Sep 8
Last Quarter
Sep 15
New

Hourly Weather History & Observations

Time (EDT) Temp. Dew Point Humidity Pressure Visibility Wind Dir Wind Speed Gust Speed Precip Events Conditions
12:52 AM 62.1 °F 59.0 °F 90% 29.94 in 10.0 mi Calm Calm - N/A   Clear
1:52 AM 62.1 °F 59.0 °F 90% 29.93 in 10.0 mi Calm Calm - N/A   Clear
2:52 AM 61.0 °F 59.0 °F 93% 29.93 in 10.0 mi Calm Calm - N/A   Clear
3:52 AM 60.1 °F 57.0 °F 90% 29.92 in 10.0 mi Calm Calm - N/A   Clear
4:52 AM 60.1 °F 57.0 °F 90% 29.91 in 10.0 mi Calm Calm - N/A   Clear
5:52 AM 59.0 °F 55.9 °F 90% 29.91 in 10.0 mi Calm Calm - N/A   Clear
6:52 AM 60.1 °F 57.9 °F 93% 29.92 in 10.0 mi Calm Calm - N/A   Clear
7:52 AM 61.0 °F 59.0 °F 93% 29.93 in 10.0 mi Calm Calm - 0.01 in   Clear
8:52 AM 66.0 °F 61.0 °F 84% 29.92 in 10.0 mi Calm Calm - N/A   Clear
9:52 AM 70.0 °F 62.1 °F 76% 29.92 in 10.0 mi Calm Calm - N/A   Clear
10:52 AM 73.0 °F 57.0 °F 57% 29.91 in 10.0 mi Calm Calm - N/A   Clear
11:52 AM 75.0 °F 55.0 °F 50% 29.91 in 10.0 mi Variable 3.5 mph - N/A   Clear
12:52 PM 75.9 °F 55.0 °F 48% 29.90 in 10.0 mi Variable 3.5 mph - N/A   Clear
1:52 PM 75.0 °F 61.0 °F 62% 29.89 in 10.0 mi East 4.6 mph - N/A   Mostly Cloudy
2:52 PM 75.0 °F 61.0 °F 62% 29.88 in 10.0 mi Variable 5.8 mph - N/A   Scattered Clouds
3:52 PM 75.0 °F 57.0 °F 53% 29.87 in 10.0 mi Variable 4.6 mph - N/A   Mostly Cloudy
4:52 PM 73.0 °F 55.9 °F 55% 29.87 in 10.0 mi SSE 4.6 mph - N/A   Clear
5:52 PM 73.0 °F 55.9 °F 55% 29.87 in 10.0 mi Variable 3.5 mph - N/A   Clear
6:52 PM 71.1 °F 57.0 °F 61% 29.88 in 10.0 mi South 3.5 mph - N/A   Clear
7:52 PM 68.0 °F 60.1 °F 76% 29.90 in 10.0 mi South 3.5 mph - N/A   Clear
8:52 PM 66.9 °F 61.0 °F 81% 29.92 in 10.0 mi SSW 4.6 mph - N/A   Mostly Cloudy
9:52 PM 66.0 °F 61.0 °F 84% 29.91 in 10.0 mi Calm Calm - N/A   Clear
10:52 PM 64.9 °F 61.0 °F 87% 29.91 in 10.0 mi Calm Calm - N/A   Clear
11:52 PM 63.0 °F 60.1 °F 90% 29.92 in 10.0 mi Calm Calm - N/A   Clear